Location: ??????
(41.3794°N, 22.5014°E)
Time: 20:53:28
(UTC+00:00)

SL-24 DEB - Pass Details

Date: 30 November 2020
Orbit: 664 x 701 km, 92.0° (Epoch: 18 January)

Event Time Altitude Azimuth Distance (km) Brightness Sun altitude
Rises 16:29:29 0° 7° (N) 3,082 7.4 -16.1°
Reaches altitude 10° 16:31:47 10° 10° (N) 2,156 6.6 -16.5°
Maximum altitude 16:36:30 67° 93° (E) 749 4.2 -17.4°
Drops below altitude 10° 16:41:09 10° 176° (S) 2,116 6.9 -18.2°
Sets 16:43:24 0° 179° (S) 3,021 7.8 -18.6°
